TimePDT,TemperatureF,Dew PointF,Humidity,Sea Level PressureIn,VisibilityMPH,Wind Direction,Wind SpeedMPH,Gust SpeedMPH,PrecipitationIn,Events,Conditions,WindDirDegrees,DateUTC
12:53 AM,59.0,46.0,62,30.09,10.0,WNW,8.1,-,N/A,,Overcast,290,2013-06-21 07:53:00
1:53 AM,55.9,48.0,75,30.10,10.0,WNW,6.9,-,0.00,Rain,Light Rain,290,2013-06-21 08:53:00
2:53 AM,55.9,48.9,77,30.10,10.0,WNW,5.8,-,0.00,,Overcast,300,2013-06-21 09:53:00
3:53 AM,55.0,50.0,83,30.09,10.0,NW,5.8,-,N/A,,Overcast,310,2013-06-21 10:53:00
4:53 AM,55.0,48.9,80,30.09,10.0,NW,4.6,-,N/A,,Overcast,320,2013-06-21 11:53:00
5:53 AM,55.9,48.0,75,30.09,10.0,WNW,4.6,-,N/A,,Mostly Cloudy,290,2013-06-21 12:53:00
6:53 AM,57.9,46.9,67,30.10,10.0,NW,8.1,-,0.01,,Mostly Cloudy,320,2013-06-21 13:53:00
7:53 AM,60.1,46.9,62,30.12,10.0,NW,11.5,-,N/A,,Overcast,320,2013-06-21 14:53:00
8:53 AM,64.0,46.0,52,30.12,10.0,WNW,13.8,19.6,N/A,,Mostly Cloudy,290,2013-06-21 15:53:00
9:53 AM,66.9,46.9,49,30.11,10.0,NW,12.7,21.9,N/A,,Overcast,310,2013-06-21 16:53:00
10:53 AM,68.0,45.0,43,30.10,10.0,NW,13.8,24.2,N/A,,Overcast,310,2013-06-21 17:53:00
11:53 AM,71.1,44.1,38,30.10,10.0,WNW,17.3,-,N/A,,Scattered Clouds,300,2013-06-21 18:53:00
12:53 PM,72.0,42.1,34,30.09,10.0,NW,8.1,17.3,N/A,,Scattered Clouds,310,2013-06-21 19:53:00
1:53 PM,73.0,43.0,34,30.08,10.0,WNW,13.8,18.4,N/A,,Mostly Cloudy,300,2013-06-21 20:53:00
2:53 PM,73.9,44.1,34,30.08,10.0,NW,15.0,-,N/A,,Partly Cloudy,310,2013-06-21 21:53:00
3:53 PM,75.0,44.1,33,30.07,10.0,NW,11.5,-,N/A,,Clear,310,2013-06-21 22:53:00
4:53 PM,75.0,46.9,37,30.07,10.0,NNW,16.1,23.0,N/A,,Mostly Cloudy,330,2013-06-21 23:53:00
5:53 PM,73.0,46.9,39,30.06,10.0,NNW,16.1,-,N/A,,Partly Cloudy,340,2013-06-22 00:53:00
6:53 PM,71.1,48.0,44,30.05,10.0,NNW,15.0,-,N/A,,Clear,330,2013-06-22 01:53:00
7:53 PM,69.1,48.0,47,30.06,10.0,NNW,13.8,-,N/A,,Clear,330,2013-06-22 02:53:00
8:53 PM,66.0,48.9,54,30.07,10.0,NW,12.7,-,N/A,,Clear,320,2013-06-22 03:53:00
9:53 PM,64.9,48.9,56,30.08,10.0,NW,12.7,-,N/A,,Clear,320,2013-06-22 04:53:00
10:53 PM,63.0,48.9,60,30.09,10.0,NW,6.9,-,N/A,,Clear,320,2013-06-22 05:53:00
11:53 PM,63.0,48.9,60,30.09,10.0,NNW,11.5,-,N/A,,Clear,330,2013-06-22 06:53:00